パンスターズ彗星

C/2019 A5 ( PanSTARRS )

English version
Home page
Updated on May 20, 2019

---------------------------------------------------------------------

・ プロフィール

発見日 2019年1月4日
発見光度 20.4等
発見者 Pan-STARRS 1 telescope (Haleakala)

・ 写真集

・ 軌道要素

Epoch 2019 June 6.0 TT = JDT 2458640.5
T 2019 June  9.52677 TT                                 MPCW
q   6.3239966            (2000.0)            P               Q
n   0.00978433     Peri.  356.04628     -0.81855487     -0.26732214
a  21.6495429      Node   146.61988     +0.54912085     -0.62397618
e   0.7078924      Incl.   67.53415     +0.16862446     +0.73429735
P 101
From 46 observations 2019 Jan. 4-May 6, mean residual 0".2.

・ 光度変化

        m1 = 9.0 + 5 logΔ + 10.0 log r

---------------------------------------------------------------------

軌道要素はM.P.E.C. 2019-J142に掲載されたものです。
光度グラフはComet for Windowsで作成したものです。

---------------------------------------------------------------------

Copyright(C) Seiichi Yoshida (comet@aerith.net). All rights reserved.